Temperature
14 15 15 15 16 15 14 14 14 14 15 16 15 15 15 16 16 16 16 16 16 16 16 16 16 16 15 15 15 15 14 14 14 14 14 14 13 13 13 13 13 13 13 12
14 15 15 15 15 15 15 15 14 14 15 15 15 15 15 15 16 16 16 16 16 16 16 16 15 15 15 15 14 14 14 14 14 14 13 13 13 13 13 13 12 12 12 12
13 13 14 14 15 15 15 14 14 15 15 15 14 14 15 16 16 16 16 16 16 16 16 15 15 15 15 14 14 14 14 14 13 13 13 13 13 13 12 12 12 12 12 12
11 13 14 15 15 15 15 15 14 14 14 14 15 15 16 16 16 16 16 16 16 15 15 15 15 14 14 14 14 14 13 13 13 13 12 12 12 12 12 12 12 12 11 11
10 12 13 14 14 14 14 14 14 14 14 14 15 14 15 16 16 16 16 16 15 15 15 15 15 14 14 14 14 13 13 13 13 13 12 12 12 12 12 12 11 11 11 11
10 12 13 14 14 15 14 14 14 14 13 13 13 12 13 16 16 16 15 15 15 15 15 14 14 14 14 14 13 13 13 13 12 12 12 12 12 12 11 11 11 11 11 10
10 11 12 13 13 14 14 14 14 14 14 13 13 14 15 15 15 15 15 15 15 14 14 14 14 13 13 13 13 13 13 12 12 12 12 12 11 11 11 11 11 11 10 10
9 11 12 13 13 13 13 14 14 14 14 14 14 14 14 15 15 15 14 14 14 14 14 14 13 13 13 13 12 12 12 12 12 12 11 11 11 11 11 10 10 10 10 10
10 11 12 12 13 13 14 14 14 14 14 14 14 14 14 14 14 14 14 14 14 13 13 13 13 12 12 12 12 12 12 11 11 11 11 11 11 10 10 10 10 10 10 9
9 10 11 12 13 13 13 13 14 13 13 13 13 13 13 13 13 13 13 13 13 13 13 12 12 12 12 12 11 11 11 11 11 11 10 10 10 10 10 9 9 9 9 9
9 9 11 12 12 12 13 13 13 13 13 13 13 13 13 13 13 13 13 12 12 12 12 12 12 11 11 11 11 11 11 10 10 10 10 10 10 9 9 9 9 9 9 8
9 10 10 11 12 12 12 12 12 12 12 12 12 12 12 12 12 12 12 12 12 12 11 11 11 11 11 10 10 10 10 10 10 10 10 9 9 9 9 8 8 8 8 8
11 11 11 11 11 11 11 11 11 12 12 12 12 12 12 12 12 11 11 11 11 11 11 10 10 10 10 10 10 9 9 9 9 9 9 9 9 9 8 8 8 8 7 7
11 11 10 11 10 11 11 11 11 11 11 11 11 11 11 11 11 11 11 10 10 10 10 10 10 10 9 9 9 9 9 9 9 9 9 8 8 8 8 8 8 7 7 7
10 10 10 10 10 10 10 10 10 10 10 10 10 10 10 10 10 10 10 10 9 9 9 9 9 9 9 9 9 9 8 8 8 8 8 8 8 7 7 7 7 7 7 7
10 10 10 10 10 9 10 10 10 9 9 10 10 10 9 9 9 9 9 9 9 9 9 9 9 8 8 8 8 8 8 8 8 8 8 7 7 7 7 7 6 6 6 6
9 9 9 9 9 9 9 9 9 9 9 9 9 9 9 9 9 8 8 8 8 8 8 8 8 8 8 8 8 8 8 7 7 7 7 7 7 6 6 6 6 6 6 6
9 9 9 9 9 9 9 9 9 9 9 9 8 8 8 8 8 8 8 8 8 8 8 8 8 8 8 7 7 7 7 7 7 7 6 6 6 6 6 6 5 5 5 5
9 9 9 9 9 9 9 9 9 9 9 8 8 8 8 8 8 7 7 7 7 7 7 7 7 7 7 7 7 7 6 6 6 6 6 6 6 6 5 5 5 5 5 5
8 8 8 8 8 8 8 8 8 8 8 8 8 8 7 7 7 7 7 7 7 6 6 7 7 6 6 6 6 6 6 6 6 6 5 5 5 5 5 5 5 4 4 4
8 8 8 8 8 8 8 8 8 7 7 7 7 7 7 7 6 6 6 6 6 6 6 6 6 6 6 6 6 5 5 5 5 5 5 5 5 4 4 4 4 4 4 4
7 7 7 7 7 7 7 7 7 7 7 6 6 6 6 6 6 6 6 5 5 5 5 5 5 5 5 5 5 5 5 5 4 4 4 4 4 4 4 4 3 3 3 3
6 6 6 6 6 6 6 6 6 6 6 6 6 6 6 6 5 5 5 5 5 5 5 5 5 5 5 5 5 4 4 4 4 4 4 3 3 3 3 3 3 3 3 3
6 6 6 6 6 6 6 6 6 6 5 5 5 5 5 5 5 5 5 5 5 4 5 5 4 4 4 4 4 4 4 4 4 3 3 3 3 3 3 3 2 2 2 2
5 5 5 5 5 5 5 5 5 5 5 5 4 4 4 4 4 4 4 4 4 4 4 4 4 4 4 4 4 4 3 3 3 3 3 3 3 2 2 2 2 2 2 2
5 5 4 4 4 5 4 4 4 4 4 4 4 4 4 4 3 3 3 3 3 3 3 3 3 3 3 3 3 3 3 3 3 2 2 2 2 2 2 2 2 2 2 1
4 4 4 4 4 4 4 4 4 4 3 3 3 3 3 3 3 3 3 3 3 2 2 3 3 3 2 2 2 2 2 2 2 2 2 2 2 1 1 1 1 1 1 1
Wind_Speed
6 6 4 6 7 6 7 8 9 10 10 11 8 7 6 4 3 2 3 3 4 4 4 3 3 3 3 4 4 4 4 4 4 3 3 2 2 2 2 2 3 3 3 2
3 4 4 6 8 8 9 8 8 8 10 8 5 3 4 4 5 4 5 4 4 4 4 4 5 4 4 4 4 4 5 5 3 2 2 2 2 2 2 2 2 3 3 3
4 4 3 6 7 8 7 7 8 10 10 5 3 5 6 6 6 6 6 5 5 5 5 5 5 5 6 5 4 4 4 3 3 3 3 3 3 2 3 3 3 3 3 3
2 0 6 8 4 6 7 7 6 7 6 6 6 4 4 5 6 6 5 5 5 5 4 4 4 4 4 4 4 4 4 4 3 3 3 3 3 3 3 2 3 3 3 3
3 3 7 7 3 3 4 6 6 7 6 4 1 1 3 3 4 6 5 5 5 4 4 3 2 3 3 3 4 4 4 4 4 4 4 4 3 3 3 2 2 3 2 3
3 4 6 6 3 2 2 5 4 4 5 3 4 1 5 3 1 2 2 2 2 2 1 1 1 2 3 4 5 5 6 5 5 5 5 5 5 3 2 2 2 2 2 2
5 6 8 6 4 2 3 6 4 4 5 5 6 6 4 1 1 2 2 2 2 2 2 2 1 2 3 4 5 6 4 4 4 4 5 4 3 2 3 3 3 2 2 1
4 5 7 3 2 3 6 4 4 4 4 4 5 3 1 1 1 1 1 1 2 2 1 0 2 3 2 3 4 3 3 3 3 3 3 3 4 3 3 4 3 2 2 1
7 6 4 3 4 5 3 4 4 3 3 3 3 2 1 1 1 1 1 1 1 2 1 0 1 2 3 3 2 2 2 2 3 3 3 3 4 4 3 3 3 2 2 1
4 6 6 6 5 4 3 3 3 3 2 2 2 2 1 1 1 1 1 1 1 2 1 1 1 2 3 2 1 2 2 2 2 3 3 3 3 4 4 4 3 3 2 2
5 7 6 5 4 4 4 4 3 2 0 1 2 1 2 2 2 2 1 1 1 2 2 2 2 1 1 2 2 2 2 2 2 3 3 3 3 3 4 4 5 4 3 3
7 6 5 7 5 4 3 4 2 1 2 2 1 1 1 2 2 2 2 1 1 2 2 2 2 2 1 1 3 3 2 2 2 2 2 3 3 2 1 3 4 4 4 4
7 6 6 7 6 4 4 4 3 2 2 2 2 1 1 1 2 2 2 2 2 3 3 2 2 2 2 2 3 3 4 3 3 3 3 3 3 3 2 0 1 2 2 2
5 3 4 5 5 5 3 3 2 2 1 1 1 1 0 1 1 2 3 3 3 2 2 2 2 3 3 2 3 3 3 3 4 3 3 3 3 3 3 3 2 1 2 2
5 5 6 5 4 3 2 1 0 1 2 3 2 1 1 1 2 3 3 1 1 1 2 2 2 3 2 2 3 3 3 2 3 3 3 3 3 3 2 3 2 2 1 1
5 4 3 3 4 4 2 2 2 3 2 2 2 2 2 2 1 2 1 1 2 2 2 2 3 3 2 2 2 2 2 4 4 3 3 3 3 3 3 3 2 2 2 2
3 3 3 4 4 4 3 4 4 4 3 3 3 2 1 1 1 1 1 1 2 2 2 2 3 2 1 2 3 2 2 2 4 3 3 3 3 4 4 3 3 3 3 3
5 6 6 5 5 4 4 3 3 3 3 3 2 1 2 2 2 3 2 1 1 2 2 2 2 1 1 2 2 2 2 2 2 3 3 3 3 4 3 3 4 4 3 3
3 3 3 3 4 3 3 3 3 2 2 1 1 2 2 2 2 3 2 1 1 2 4 3 2 1 1 3 3 2 2 2 2 2 2 3 3 3 3 3 4 4 3 3
2 1 1 1 1 1 1 1 1 1 1 1 1 1 1 2 2 2 2 2 3 3 3 2 1 1 2 3 3 2 3 3 3 2 2 2 3 3 3 4 4 4 4 4
2 1 0 0 1 1 1 1 1 1 1 1 1 2 2 2 1 2 2 2 4 3 2 2 1 1 2 2 3 2 3 3 3 2 3 3 3 4 4 4 4 4 4 4
3 2 1 1 1 1 1 1 1 1 1 1 1 1 1 1 1 1 3 3 4 3 1 1 1 2 3 3 2 3 3 3 2 2 2 3 3 3 4 4 4 4 4 4
2 2 1 1 1 1 2 1 1 1 1 2 2 2 2 2 2 2 3 3 3 3 2 2 3 4 3 2 2 2 2 3 2 2 3 3 3 3 4 4 4 4 4 4
2 2 2 1 0 0 1 2 2 1 1 1 2 2 2 2 2 2 3 3 3 3 2 3 3 3 2 1 2 2 2 2 3 3 3 3 3 3 3 3 4 4 4 4
2 2 1 1 1 1 2 2 2 1 1 1 2 2 2 2 2 2 2 2 3 2 1 2 3 2 1 1 2 2 2 2 3 3 3 2 3 3 3 3 4 4 4 4
2 2 2 2 2 2 2 1 1 1 1 1 2 2 2 1 1 1 1 2 2 1 1 1 1 1 0 1 1 2 2 2 3 2 2 3 3 3 3 3 4 3 4 4
2 2 1 2 2 2 1 1 1 2 2 2 2 2 2 2 1 1 1 1 1 1 1 1 1 0 1 1 1 1 1 1 2 2 2 2 2 3 3 3 3 3 3 4
Wind_Direction
243 251 234 236 237 209 205 206 211 237 239 256 254 246 242 226 201 179 190 194 207 215 220 221 222 222 215 212 201 187 180 189 208 214 210 203 199 202 200 197 194 184 184 192
272 266 252 258 253 234 229 223 227 247 258 253 253 226 221 211 197 204 218 217 220 220 220 221 221 221 215 213 205 185 187 200 202 187 183 190 194 186 175 183 181 162 176 186
256 283 321 266 234 220 225 219 202 228 245 250 239 227 223 218 210 215 221 217 218 222 220 224 222 212 210 210 193 183 192 197 191 183 186 199 192 173 186 188 175 180 189 191
214 54 242 248 247 216 226 247 228 233 249 236 232 241 245 216 211 223 220 215 221 227 227 226 218 215 205 190 181 183 188 193 192 184 193 189 176 186 198 183 179 195 195 197
160 217 271 291 268 192 210 261 236 233 253 255 242 8 307 234 209 218 215 212 215 216 214 208 209 205 184 183 184 185 195 200 198 190 188 182 189 201 195 174 183 189 184 183
163 197 240 251 271 252 145 274 273 231 242 227 124 185 267 265 214 216 207 193 188 178 150 166 218 177 176 190 193 205 209 206 199 190 187 191 196 196 185 169 175 167 165 172
198 228 259 262 282 93 175 253 281 240 234 199 199 219 240 244 190 167 170 172 156 143 156 200 183 155 185 203 217 221 207 194 190 189 189 187 181 173 159 149 142 140 142 150
175 214 253 285 85 175 236 279 283 267 244 214 225 240 234 181 149 120 120 125 133 143 180 162 147 150 182 233 240 214 182 179 182 183 181 169 158 155 150 144 141 140 131 97
198 223 261 268 250 270 267 269 275 262 256 206 202 223 219 213 183 167 150 150 157 158 157 324 181 173 198 241 230 172 156 173 176 169 165 159 158 155 146 147 151 158 158 183
248 266 279 289 289 301 299 275 280 261 239 193 196 201 183 178 192 200 175 170 158 146 164 245 253 220 213 223 180 154 163 181 175 165 162 157 157 159 157 163 167 171 176 205
262 279 302 296 292 303 320 332 336 330 269 183 152 190 206 208 215 217 208 202 179 180 209 238 242 244 239 204 161 151 166 178 175 175 173 167 164 171 171 178 175 177 193 197
245 250 239 269 284 298 304 302 292 313 337 330 218 213 225 225 219 211 221 210 197 207 221 242 241 249 252 206 174 166 175 194 193 179 173 167 165 159 157 164 167 170 175 179
247 255 247 271 286 288 279 275 268 248 230 276 296 240 213 247 235 214 217 225 222 226 230 235 239 251 249 205 177 180 191 195 188 179 176 175 175 170 171 153 139 161 174 188
254 249 266 270 272 278 277 282 293 311 313 283 273 285 284 281 249 233 238 235 230 234 239 228 229 247 251 210 181 188 196 194 184 186 185 183 184 186 182 180 193 251 250 226
265 243 243 263 275 284 285 267 300 319 324 322 308 289 268 264 249 251 257 241 195 229 250 240 243 262 258 201 186 191 190 194 188 181 181 180 176 176 182 188 198 219 267 265
272 271 252 243 250 261 254 231 229 259 275 281 284 289 280 274 264 253 249 205 181 228 249 245 255 262 246 190 181 195 200 192 178 174 171 171 171 177 189 199 207 217 228 236
250 263 253 247 250 252 245 244 239 244 253 260 259 260 253 278 318 296 289 266 225 231 241 241 256 265 216 176 171 178 183 188 180 172 177 181 185 194 200 204 215 226 238 238
238 234 229 220 224 238 250 249 241 240 248 250 241 224 208 204 232 252 257 277 354 331 300 269 250 233 192 174 168 165 165 171 177 186 186 189 193 197 200 207 220 230 244 246
280 256 242 229 227 222 230 238 244 242 243 219 207 232 236 234 234 240 221 183 210 285 292 283 255 218 202 199 173 161 163 168 177 191 190 194 197 198 205 215 224 229 232 234
317 274 237 243 250 211 224 242 248 280 275 193 185 256 282 272 250 226 204 227 245 253 262 265 239 221 214 205 181 167 171 176 183 190 194 199 208 215 218 225 230 236 238 237
355 342 303 284 309 291 229 207 191 236 274 239 207 234 250 270 262 214 195 262 288 285 266 250 239 231 213 203 187 168 173 178 184 191 200 210 219 224 226 229 233 236 239 241
346 345 332 333 338 317 303 246 202 212 250 263 253 221 221 283 283 259 240 240 261 270 261 246 240 237 226 202 171 172 179 183 190 194 206 216 221 228 232 232 233 238 238 237
326 317 302 284 265 285 310 295 229 211 234 243 232 231 232 246 239 229 266 271 259 257 249 238 245 246 237 184 165 178 186 192 202 210 217 224 230 231 234 239 242 243 239 240
322 312 297 297 334 21 312 301 296 271 243 239 247 244 237 259 280 256 243 261 269 263 255 249 250 241 210 148 163 179 196 205 213 222 226 228 230 236 241 244 248 249 245 243
304 297 304 318 309 283 276 298 325 320 313 308 301 292 279 241 236 264 271 254 261 275 276 258 253 229 163 152 172 188 206 216 214 216 221 229 237 242 248 251 254 255 253 251
289 279 274 268 265 267 265 259 272 281 284 299 303 305 310 313 293 277 275 266 260 267 271 266 264 256 169 195 207 211 218 239 251 241 227 231 240 245 251 252 256 260 262 262
307 294 296 309 307 288 265 237 235 254 252 249 272 287 296 304 303 291 283 274 272 263 257 261 262 242 234 237 236 233 233 236 239 240 240 242 247 250 253 253 258 264 266 266
Height
1506 1503 1503 1503 1502 1504 1507 1508 1512 1506 1502 1493 1490 1489 1488 1488 1489 1489 1490 1491 1492 1493 1494 1495 1496 1496 1497 1498 1499 1500 1501 1502 1502 1503 1504 1504 1505 1506 1506 1507 1507 1508 1508 1509
1506 1502 1501 1501 1499 1499 1500 1500 1501 1499 1495 1486 1486 1486 1486 1486 1487 1487 1488 1489 1490 1491 1491 1492 1493 1493 1494 1495 1496 1497 1497 1498 1499 1499 1500 1501 1501 1502 1503 1503 1504 1504 1505 1505
1512 1505 1502 1503 1494 1494 1493 1492 1493 1494 1488 1483 1484 1483 1482 1483 1484 1484 1485 1486 1487 1488 1488 1489 1490 1490 1491 1492 1493 1493 1494 1494 1495 1496 1496 1497 1498 1498 1499 1500 1500 1501 1501 1502
1512 1508 1511 1495 1485 1485 1487 1486 1485 1484 1481 1480 1480 1480 1480 1481 1481 1482 1483 1484 1484 1485 1486 1487 1487 1488 1488 1489 1490 1490 1491 1491 1492 1493 1493 1494 1494 1495 1496 1496 1497 1497 1497 1498
1514 1511 1504 1492 1485 1484 1486 1485 1481 1480 1478 1478 1478 1479 1479 1479 1479 1480 1480 1481 1482 1483 1483 1484 1484 1485 1485 1486 1486 1487 1487 1488 1489 1490 1490 1491 1491 1492 1492 1493 1493 1494 1494 1495
1511 1508 1506 1491 1482 1480 1483 1486 1478 1477 1477 1477 1478 1483 1479 1477 1477 1478 1479 1479 1480 1481 1481 1481 1482 1482 1482 1483 1483 1483 1484 1485 1486 1487 1487 1487 1488 1489 1489 1490 1490 1491 1492 1492
1508 1506 1497 1485 1480 1480 1491 1486 1477 1475 1475 1475 1475 1476 1475 1475 1475 1476 1477 1477 1478 1478 1479 1479 1479 1479 1479 1480 1480 1480 1481 1482 1483 1483 1484 1484 1485 1486 1486 1487 1488 1488 1489 1489
1505 1505 1497 1481 1481 1483 1482 1476 1475 1474 1473 1472 1472 1473 1473 1473 1474 1474 1475 1475 1476 1476 1476 1477 1477 1477 1477 1477 1477 1478 1478 1479 1480 1480 1481 1481 1482 1483 1483 1484 1484 1485 1486 1486
1493 1491 1482 1480 1479 1478 1477 1475 1473 1472 1471 1471 1471 1471 1471 1472 1472 1472 1473 1474 1474 1474 1474 1474 1475 1475 1475 1475 1475 1475 1475 1476 1477 1477 1478 1478 1479 1479 1480 1480 1481 1482 1482 1483
1487 1482 1479 1478 1476 1475 1474 1473 1472 1471 1470 1469 1469 1469 1469 1470 1470 1471 1471 1472 1472 1472 1472 1472 1473 1473 1473 1473 1473 1473 1472 1473 1473 1474 1475 1475 1476 1476 1477 1477 1478 1478 1479 1480
1484 1480 1477 1474 1474 1473 1472 1471 1470 1469 1469 1468 1468 1467 1468 1468 1468 1469 1469 1469 1470 1470 1470 1470 1470 1470 1470 1470 1470 1470 1470 1470 1471 1471 1472 1472 1473 1474 1474 1475 1476 1476 1477 1477
1481 1476 1476 1473 1472 1472 1470 1469 1468 1468 1467 1467 1467 1466 1466 1466 1466 1466 1467 1467 1467 1468 1468 1468 1468 1468 1468 1468 1468 1467 1467 1468 1468 1468 1469 1470 1470 1471 1472 1473 1473 1474 1475 1475
1474 1473 1473 1471 1470 1469 1468 1467 1467 1466 1466 1465 1465 1464 1464 1464 1464 1464 1464 1465 1465 1465 1465 1465 1465 1465 1465 1465 1465 1465 1465 1465 1465 1466 1466 1467 1467 1468 1469 1470 1471 1471 1472 1472
1471 1470 1469 1468 1467 1466 1466 1465 1464 1464 1464 1463 1463 1462 1462 1462 1462 1462 1462 1462 1462 1462 1462 1462 1462 1462 1462 1462 1462 1462 1462 1462 1462 1462 1463 1464 1464 1465 1466 1467 1467 1467 1468 1469
1467 1467 1466 1465 1464 1464 1463 1463 1462 1461 1461 1461 1461 1460 1460 1459 1459 1459 1460 1460 1459 1459 1459 1459 1459 1459 1459 1459 1459 1459 1459 1459 1459 1459 1460 1461 1461 1462 1463 1463 1463 1464 1464 1465
1463 1462 1462 1461 1461 1460 1460 1460 1459 1458 1458 1458 1458 1458 1458 1458 1457 1457 1457 1457 1457 1456 1456 1456 1456 1456 1456 1456 1456 1456 1456 1456 1456 1456 1457 1457 1458 1459 1460 1460 1460 1460 1460 1461
1459 1458 1458 1457 1457 1457 1457 1457 1456 1456 1455 1456 1455 1456 1455 1455 1455 1455 1455 1455 1454 1454 1454 1453 1453 1453 1452 1452 1452 1452 1452 1453 1453 1453 1453 1454 1455 1456 1456 1456 1456 1456 1457 1457
1456 1455 1455 1454 1454 1454 1454 1454 1454 1453 1453 1453 1453 1453 1453 1452 1452 1452 1452 1452 1452 1451 1451 1451 1450 1450 1449 1449 1449 1449 1449 1449 1449 1449 1450 1451 1451 1452 1452 1453 1453 1453 1453 1454
1452 1452 1452 1452 1452 1452 1451 1451 1451 1451 1451 1451 1450 1450 1450 1450 1450 1450 1449 1449 1448 1448 1448 1447 1447 1446 1446 1446 1446 1446 1446 1446 1446 1446 1447 1447 1448 1448 1449 1449 1449 1449 1450 1450
1450 1449 1449 1449 1449 1449 1449 1449 1449 1449 1449 1448 1448 1447 1447 1447 1447 1447 1447 1446 1446 1445 1445 1444 1444 1443 1443 1443 1443 1443 1443 1443 1443 1443 1443 1444 1444 1444 1445 1445 1445 1446 1446 1445
1448 1447 1447 1447 1447 1447 1447 1447 1447 1446 1446 1446 1445 1445 1445 1445 1445 1444 1444 1443 1443 1443 1442 1441 1441 1440 1440 1440 1440 1440 1440 1440 1440 1440 1440 1440 1440 1441 1441 1441 1441 1441 1441 1441
1447 1446 1446 1445 1445 1445 1445 1445 1445 1444 1444 1443 1443 1443 1442 1442 1442 1441 1441 1440 1440 1439 1439 1438 1438 1438 1437 1437 1437 1436 1436 1436 1436 1436 1436 1436 1436 1436 1436 1437 1437 1437 1437 1437
1446 1445 1445 1444 1443 1443 1443 1443 1442 1442 1442 1441 1441 1440 1440 1439 1439 1438 1437 1437 1436 1436 1435 1435 1435 1434 1434 1434 1433 1433 1433 1433 1433 1433 1433 1433 1433 1432 1432 1432 1432 1432 1432 1432
1444 1443 1443 1442 1442 1441 1440 1440 1440 1439 1439 1439 1439 1438 1437 1436 1435 1435 1434 1434 1433 1433 1432 1432 1432 1431 1431 1430 1430 1430 1430 1430 1430 1430 1430 1429 1429 1428 1428 1428 1428 1427 1427 1427
1442 1441 1441 1440 1439 1439 1438 1437 1437 1437 1436 1436 1436 1435 1434 1433 1433 1431 1431 1430 1430 1429 1429 1428 1428 1428 1428 1427 1427 1427 1427 1427 1426 1426 1426 1425 1425 1425 1424 1424 1424 1423 1422 1422
1440 1439 1439 1438 1437 1437 1436 1435 1434 1434 1433 1433 1432 1432 1431 1430 1429 1429 1428 1427 1426 1426 1425 1425 1425 1424 1424 1424 1424 1424 1423 1423 1423 1422 1422 1421 1421 1420 1420 1419 1419 1418 1418 1417
1437 1436 1436 1435 1435 1434 1433 1432 1432 1431 1430 1430 1429 1428 1428 1427 1426 1425 1424 1423 1423 1422 1422 1421 1421 1421 1420 1420 1420 1420 1420 1419 1419 1418 1418 1417 1417 1416 1416 1415 1414 1413 1413 1412